Погода в Сосьве

Погода в Сосьве : погода сейчас, прогноз погоды и архив. Всё, что Вы хотите узнать о погоде в Сосьве!

Хотите узнать прогноз погоды в Сосьве? Тогда Вам сюда: Погода в Сосьве

Поиск расширенной информации на нашем сайте:

Полезная информация: Видео логопедических занятий постановка звука.

Другие новости

Новости СМИ2

Главная страница сайта

Новости сайта

02.10.2013

Напоминаем, что на нашем новом сайте вы можете получить высокодетализированные прогнозы погоды по пунктам России, СНГ и мира (включающие важные для авиации метеовеличины, такие как направление и скорость ветра, видимость, явления погоды, количество и форма облачности, нижняя и верхняя граница облачности), а также ознакомиться с разнообразными материалами по авиационной метеорологии и подборкой полезных ссылок на эту тему.

Сайт Метеоцентр.Азия посвящён разработке технологий оптимизации авиаметеорологического обслуживания, включая проектирование и перспективное создание нескольких автоматизированных авиаметеорологических систем:
- система выпуска высокодетальных прогностических карт явлений погоды для нижнего воздушного пространства по России и ближнему зарубежью;
- система верификации прогнозов TAF (выпускаемых синоптиками официальных АМСГ РФ и ближнего зарубежья) и AUTOTAF (выпускаемых сайтом Метеоцентр.Азия) - выявление ошибок, онлайн-сопоставление с фактической погодой METAR, автоматическое внесение коррективов в прогнозы при резком отклонении фактической погоды от прогноза, подсчёт оправдываемости прогнозов по элементам и в целом;
- система обработки, анализа и отображения авиаметеорологической информации для применения провайдерами метеорологической информации.

Рекомендуем: Самая свежая информация трехмерное моделирование продукции на нашем сайте.

Погода в Сосьве - сегодня

Время (UTC), дата Ветер
(°,м/с) 
Видим.   Явления Облачность Т
(°С)
Тd
(°С)
f(%) Тe
(°С)
Pmin
(гПа)
dP
(гПа)
Po
(мм)
O2
(г/м3)
Тmin Tmax R s Состояние
почвы
03 24.02.17 050 (СВ) 20000 м    8/0 средняя 
[Ac trans]
-23.6 -26.2 79 -24  1015.7  0.9  759  337  -30.5      43  равномерный
сухой снег
100% 
06 24.02.17 030 (СВ) 20000 м    10/0 средняя 
[Ac As]
-18.6 -21.9 75 -21  1017.2  1.5  760  330           
09 24.02.17 040 (СВ) 20000 м    8/0 средняя, верхняя 
[Ac trans|Ci fib]
-16.3 -20.4 71 -20  1017.5  0.4  760  327           
12 24.02.17 030 (СВ) 4000 м  слаб. снег  10/0 средняя 
[As op]
-16.2 -19.5 76 -19  1017.5  0.1  760  327           
15 24.02.17 030 (СВ) 4000 м  слаб. снег  10/0 средняя 
[As op]
-17.7 -20.3 80 -20  1018.1  0.6  761  329    -16  0.4     
18 24.02.17 030 (СВ) 4000 м  слаб. снег  10/0 верхняя 
[Cs]
-18.7 -21 82 -19  1018.5  0.4  761  331           
21 24.02.17 330 (СЗ) 20000 м  {снег}  ясно 
-21.2 -23.4 82 -22  1018.5  0.1  761  334           
00 25.02.17 060 (СВ) 4000 м  слаб. снег  10/0 средняя 
[As op]
-18.4 -21 80 -21  1018.4  0.1  761  330           
03 25.02.17 040 (СВ) 4000 м  слаб. снег  10/0 средняя 
[As op]
-18.2 -20.7 81 -21  1017.7  -0.7  761  330  -21.2    0.5  46  равномерный
сухой снег
100% 
06 25.02.17 070 (В) 2000 м  снег  10/0 средняя 
[As op]
-16.8 -19.3 81 -19  1016.9  -0.8  760  328           
09 25.02.17 050 (СВ) 4000 м  слаб. снег  10/0 средняя 
[As op]
-14.4 -17 81 -18  1014.8  -2  758  324           
12 25.02.17 060 (СВ) 2000 м  снег  10/0 средняя 
[As op]
-13.3 -15.4 84 -17  1012.4  -2.4  757  322           
15 25.02.17 070 (В) 2000 м  снег  10/0 средняя 
[As op]
-14 -16 85 -19  1009.5  -2.9  754  322    -13.3     
18 25.02.17 070 (В) 2000 м  снег  10/0 средняя 
[As op]
-12 -13.6 88 -15  1007.1  -2.4  753  318           
21 25.02.17 080 (В) 2000 м  снег  10/0 средняя 
[As op]
-10.6 -12 89 -14  1005  -2.1  751  316           
00 26.02.17 080 (В) 2000 м  снег  10/0 средняя 
[As op]
-9.8 -11.4 88 -12  1003.2  -2.1  750  314           
03 26.02.17 090 (В) 4000 м  слаб. снег  10/0 средняя 
[As op]
-10.2 -11.6 89 -13  1001.6  -1.6  749  314  -14    48  равномерный
сухой снег
100% 
06 26.02.17 080 (В) 4000 м  слаб. снег  10/0 средняя 
[As op]
-9 -10.6 88 -12  1000.2  -1.3  748  312           
09 26.02.17 070 (В) 2000 м  снег  10/0 средняя 
[As op]
-7.3 -8.9 88 -9  997.7  -2.4  746  310           
12 26.02.17 080 (В) 2000 м  снег  10/0 средняя 
[As op]
-7 -8.2 91 -10  993.9  -3.8  743  308           
15 26.02.17 080 (В) 2000 м  снег  10/0 средняя 
[As op]
-7.4 -8.7 90 -11  989.9  -4  740  307    -6.7     
18 26.02.17 060 (СВ) 4000 м  слаб. снег  10/0 средняя 
[As op]
-7.9 -9.1 91 -9  987.2  -2.7  738  307           
21 26.02.17 250 (З) 4000 м  слаб. снег  10/0 средняя 
[As op]
-8.3 -9.5 91 -8  987.9  0.7  738  308           
00 27.02.17 210 (ЮЗ) 20000 м  {снег}  ясно 
-10.7 -12.7 85 -13  991.8  0.7  741  312           
03 27.02.17 220 (ЮЗ) 4{10}  20000 м  позёмок  6/0 средняя 
[Ac cast]
-9.6 -11.9 83 -14  993.3  1.5  742  311  -12.7    54  равномерный
сухой снег
100% 
Время (UTC), дата Ветер
(°,м/с) 
Видим.   Явления Облачность Т
(°С)
Тd
(°С)
f(%) Тe
(°С)
Pmin
(гПа)
dP
(гПа)
Po
(мм)
O2
(г/м3)
Тmin Tmax R s Состояние
почвы

Для получения пояснительной информации подведите курсор к названию столбца.

ПОГОДА в Сосьве - архив

Всё, что Вы хотите узнать о погоде в Сосьве - удобно и подробно!

Выберите нужную дату (начиная с 1 января 2015* года) и нажмите кнопку "Найти".
Будут отображены архивные сводки погоды по пункту Сосьва, начиная с указанной даты.


Отображать данные в формате CSV (для использования в таблицах Excel)


Внимание! Наш архив погоды предназначен исключительно для личного некоммерческого использования в познавательных целях. Если Вам необходимы официальные справки о состоянии погоды (для производственных, юридических, коммерческих и т.п. целей), обращайтесь в органы Росгидромета.

*Примечание: данная дата относится к архиву по метеостанциям СССР (Россия, СНГ, Балтия).
Архив по метеостанциям Зарубежной Европы и Азии (кроме Китая) хранится 10 дней, по другим регионам земного шара (Китай, Африка, Америка, Австралия, Океания) - 1 день.

Сосьва - район местоположения метеостанции


Название, широта, долгота, высота метеостанции:
Сосьва 63.6°ш. 62.1°д. 28 м над ур. моря [Российская Федерация]

Дополнительная информация

В oтличие oт бoльшинства пoгoдных сайтoв мы публикуем пoдрoбную метеoинфoрмацию в детальнoм прoфессиoнальнoм фoрмате.

Характеристики температуры и влажнoсти вoздуха измеряются на высoте 2 м в тени вдали oт зданий и деревьев.
Скoрoсть ветра измеряется на высoте 10 м (на урoвне рoста челoвека скoрoсть ветра ниже в 1.5-2 раза). Если метеoстанция нахoдится в гoрoде или в лесу, тo скoрoсть ветра занижена на 2-4 м/с пo сравнению с oткрытым местoм. Скoрoсть ветра над акватoриями крупных рек и oзёр, а также на вершинах хoлмoв на 2-5 м/с выше, чем в oбычных услoвиях.
Атмoсфернoе давление в разных тoчках местнoсти мoжет значительнo oтличаться oт давления на метеoстанции, в зависимoсти oт услoвий рельефа (при пoдъёме на 10 м давление пoнижается примернo на 1 мм рт.ст.).